| time (UTC) | temp F | wind direction | speed knots | gust knots | rain 1hr in | rain 24hr in | rain mn in | humidity % | barometer mb |
| 20260506092010 | 64 | 201 | 1.7 | 4.3 | 0.00 | 0.06 | 0.00 | 76 | 1007.5 |
| 20260506091530 | 64 | 0 | 0.0 | 4.3 | 0.00 | 0.06 | 0.00 | 75 | 1007.6 |
| 20260506091015 | 64 | 0 | 0.0 | 6.1 | 0.00 | 0.06 | 0.00 | 75 | 1007.5 |
| 20260506090509 | 64 | 0 | 0.0 | 6.1 | 0.00 | 0.06 | 0.00 | 75 | 1007.5 |
| 20260506090028 | 64 | 146 | 0.0 | 6.1 | 0.00 | 0.06 | 0.00 | 74 | 1007.4 |
| 20260506085510 | 64 | 0 | 0.0 | 6.1 | 0.00 | 0.06 | 0.00 | 73 | 1007.5 |
| 20260506085011 | 65 | 0 | 0.0 | 0.9 | 0.00 | 0.06 | 0.00 | 72 | 1007.5 |
| 20260506084536 | 65 | 0 | 0.0 | 3.5 | 0.00 | 0.06 | 0.00 | 71 | 1007.5 |
| 20260506084013 | 65 | 0 | 0.0 | 3.5 | 0.00 | 0.06 | 0.00 | 71 | 1007.6 |
| 20260506083511 | 65 | 0 | 0.0 | 4.3 | 0.00 | 0.06 | 0.00 | 71 | 1007.7 |
| 20260506083032 | 66 | 0 | 0.0 | 7.0 | 0.00 | 0.06 | 0.00 | 70 | 1007.7 |
| 20260506082510 | 66 | 0 | 0.0 | 7.0 | 0.00 | 0.06 | 0.00 | 70 | 1007.7 |
| 20260506082011 | 65 | 180 | 0.9 | 7.0 | 0.00 | 0.06 | 0.00 | 70 | 1007.7 |
| 20260506081527 | 65 | 0 | 0.0 | 6.1 | 0.00 | 0.06 | 0.00 | 70 | 1007.7 |
| 20260506081012 | 65 | 196 | 0.0 | 6.1 | 0.00 | 0.06 | 0.00 | 70 | 1007.8 |
| 20260506080514 | 64 | 193 | 0.0 | 3.5 | 0.00 | 0.06 | 0.00 | 70 | 1007.7 |
| 20260506073516 | 65 | 0 | 0.0 | 3.5 | 0.00 | 0.06 | 0.00 | 68 | 1007.6 |
| 20260506073030 | 65 | 0 | 0.0 | 3.5 | 0.00 | 0.06 | 0.00 | 69 | 1007.7 |
| 20260506072512 | 66 | 0 | 0.0 | 0.9 | 0.00 | 0.06 | 0.00 | 68 | 1007.6 |
| 20260506072011 | 66 | 0 | 0.0 | 1.7 | 0.00 | 0.06 | 0.00 | 66 | 1007.8 |
| 20260506071528 | 66 | 0 | 0.0 | 1.7 | 0.00 | 0.06 | 0.00 | 66 | 1007.8 |
| 20260506071010 | 66 | 0 | 0.0 | 2.6 | 0.00 | 0.06 | 0.00 | 66 | 1007.8 |
| 20260506070513 | 67 | 0 | 0.0 | 4.3 | 0.00 | 0.06 | 0.00 | 66 | 1007.9 |
| 20260506062516 | 69 | 0 | 0.0 | 4.3 | 0.00 | 0.06 | 0.00 | 61 | 1008.1 |
| 20260506062012 | 68 | 0 | 0.0 | 4.3 | 0.00 | 0.06 | 0.00 | 61 | 1008.0 |
| 20260506061528 | 68 | 205 | 0.0 | 3.5 | 0.00 | 0.06 | 0.00 | 61 | 1008.0 |
| 20260506061013 | 69 | 0 | 0.0 | 7.8 | 0.00 | 0.06 | 0.00 | 61 | 1008.1 |
| 20260506060509 | 69 | 0 | 0.0 | 8.7 | 0.00 | 0.06 | 0.00 | 61 | 1008.1 |
| 20260506051010 | 69 | 0 | 0.0 | 8.7 | 0.00 | 0.06 | 0.00 | 60 | 1008.5 |
| 20260506050511 | 69 | 200 | 0.9 | 6.1 | 0.00 | 0.06 | 0.00 | 60 | 1008.6 |
| 20260506045012 | 70 | 276 | 0.0 | 7.8 | 0.00 | 0.06 | 0.00 | 60 | 1008.7 |
| 20260506044528 | 70 | 138 | 0.9 | 7.8 | 0.00 | 0.06 | 0.00 | 59 | 1008.6 |
| 20260506044010 | 70 | 193 | 0.0 | 7.0 | 0.00 | 0.06 | 0.00 | 59 | 1008.7 |
| 20260506043514 | 70 | 186 | 1.7 | 7.0 | 0.00 | 0.06 | 0.00 | 58 | 1008.6 |
| 20260506043028 | 70 | 0 | 0.9 | 7.8 | 0.00 | 0.06 | 0.00 | 59 | 1008.6 |
| 20260506042513 | 70 | 189 | 1.7 | 7.8 | 0.00 | 0.06 | 0.00 | 58 | 1008.6 |
| 20260506042014 | 70 | 219 | 0.9 | 5.2 | 0.00 | 0.06 | 0.00 | 58 | 1008.7 |
| 20260506041544 | 70 | 0 | 1.7 | 5.2 | 0.00 | 0.06 | 0.00 | 58 | 1008.6 |
| 20260506041011 | 70 | 224 | 0.0 | 5.2 | 0.00 | 0.06 | 0.00 | 57 | 1008.5 |
| 20260506040512 | 70 | 0 | 0.0 | 5.2 | 0.00 | 0.06 | 0.00 | 57 | 1008.4 |
| 20260506040032 | 71 | 164 | 0.0 | 3.5 | 0.00 | 0.06 | 0.00 | 55 | 1008.3 |
| 20260506035514 | 71 | 88 | 0.0 | 2.6 | 0.00 | 0.06 | 0.06 | 54 | 1008.2 |
| 20260506035011 | 71 | 126 | 0.0 | 3.5 | 0.00 | 0.06 | 0.06 | 53 | 1008.2 |
| 20260506034546 | 71 | 0 | 0.0 | 6.1 | 0.00 | 0.06 | 0.06 | 52 | 1008.3 |
| 20260506034016 | 71 | 186 | 0.9 | 7.0 | 0.00 | 0.06 | 0.06 | 52 | 1008.3 |
| 20260506033515 | 71 | 0 | 1.7 | 7.8 | 0.00 | 0.06 | 0.06 | 52 | 1008.5 |
| 20260506033030 | 71 | 0 | 0.9 | 7.8 | 0.00 | 0.06 | 0.06 | 51 | 1008.3 |
| 20260506032511 | 72 | 193 | 0.0 | 3.5 | 0.00 | 0.06 | 0.06 | 51 | 1008.2 |
| 20260506032011 | 72 | 200 | 0.0 | 7.0 | 0.00 | 0.06 | 0.06 | 51 | 1008.3 |
| 20260506031528 | 72 | 0 | 0.0 | 7.0 | 0.00 | 0.06 | 0.06 | 50 | 1008.2 |
| 20260506031012 | 72 | 227 | 2.6 | 7.0 | 0.00 | 0.06 | 0.06 | 50 | 1008.3 |
| 20260506030514 | 72 | 0 | 0.9 | 6.1 | 0.00 | 0.06 | 0.06 | 50 | 1008.2 |
| 20260506030032 | 72 | 223 | 0.9 | 6.1 | 0.00 | 0.06 | 0.06 | 49 | 1008.1 |
| 20260506025516 | 73 | 0 | 0.0 | 6.1 | 0.00 | 0.06 | 0.06 | 49 | 1008.0 |
| 20260506025012 | 73 | 196 | 0.9 | 6.1 | 0.00 | 0.06 | 0.06 | 49 | 1008.1 |
| 20260506024534 | 73 | 229 | 1.7 | 6.1 | 0.00 | 0.06 | 0.06 | 49 | 1008.1 |
| 20260506024013 | 73 | 171 | 0.9 | 6.1 | 0.00 | 0.06 | 0.06 | 51 | 1008.1 |
| 20260506023516 | 73 | 122 | 0.9 | 7.8 | 0.00 | 0.06 | 0.06 | 49 | 1008.2 |
| 20260506023030 | 73 | 0 | 0.0 | 7.8 | 0.00 | 0.06 | 0.06 | 50 | 1008.2 |
| 20260506022512 | 73 | 191 | 0.9 | 7.8 | 0.00 | 0.06 | 0.06 | 49 | 1008.3 |
| 20260506022012 | 73 | 190 | 0.9 | 8.7 | 0.00 | 0.06 | 0.06 | 49 | 1008.2 |
| 20260506021528 | 73 | 186 | 0.9 | 8.7 | 0.00 | 0.06 | 0.06 | 48 | 1008.2 |
| 20260506021010 | 73 | 0 | 0.0 | 7.0 | 0.00 | 0.06 | 0.06 | 48 | 1008.3 |
| 20260506020516 | 74 | 0 | 1.7 | 8.7 | 0.00 | 0.06 | 0.06 | 48 | 1008.0 |
| 20260506020030 | 74 | 229 | 1.7 | 8.7 | 0.00 | 0.06 | 0.06 | 47 | 1008.1 |
| 20260506015512 | 74 | 212 | 0.9 | 7.8 | 0.00 | 0.06 | 0.06 | 46 | 1008.1 |
| 20260506015011 | 73 | 0 | 1.7 | 6.1 | 0.00 | 0.06 | 0.06 | 46 | 1008.1 |
| 20260506014532 | 73 | 0 | 0.0 | 6.1 | 0.00 | 0.06 | 0.06 | 46 | 1008.0 |
| 20260506014011 | 73 | 145 | 0.0 | 5.2 | 0.00 | 0.06 | 0.06 | 46 | 1008.0 |
| 20260506013513 | 74 | 172 | 0.0 | 4.3 | 0.00 | 0.06 | 0.06 | 45 | 1008.1 |
| 20260506013043 | 74 | 205 | 0.9 | 4.3 | 0.00 | 0.06 | 0.06 | 44 | 1008.0 |
| 20260506012513 | 74 | 0 | 0.0 | 4.3 | 0.00 | 0.06 | 0.06 | 45 | 1008.0 |
| 20260506012012 | 74 | 0 | 0.0 | 4.3 | 0.00 | 0.06 | 0.06 | 45 | 1007.8 |
| 20260506011536 | 74 | 0 | 0.0 | 3.5 | 0.00 | 0.06 | 0.06 | 44 | 1007.7 |
| 20260506011011 | 74 | 0 | 0.0 | 4.3 | 0.00 | 0.06 | 0.06 | 44 | 1007.7 |
| 20260506010511 | 75 | 177 | 0.9 | 4.3 | 0.00 | 0.06 | 0.06 | 42 | 1007.6 |
| 20260506010033 | 75 | 264 | 0.9 | 4.3 | 0.00 | 0.06 | 0.06 | 43 | 1007.6 |
| 20260506005513 | 75 | 0 | 0.0 | 6.1 | 0.00 | 0.06 | 0.06 | 42 | 1007.5 |
| 20260506005013 | 75 | 0 | 0.9 | 7.0 | 0.00 | 0.06 | 0.06 | 42 | 1007.4 |
| 20260506004531 | 75 | 0 | 2.6 | 7.0 | 0.00 | 0.06 | 0.06 | 42 | 1007.4 |
| 20260506004012 | 75 | 238 | 0.0 | 6.1 | 0.00 | 0.06 | 0.06 | 42 | 1007.3 |
| 20260506003512 | 75 | 219 | 0.0 | 6.1 | 0.00 | 0.06 | 0.06 | 42 | 1007.3 |
| 20260506003030 | 75 | 0 | 0.9 | 6.1 | 0.00 | 0.06 | 0.06 | 42 | 1007.4 |
| 20260506002511 | 75 | 239 | 0.0 | 3.5 | 0.00 | 0.06 | 0.06 | 41 | 1007.3 |
| 20260506002013 | 75 | 0 | 0.0 | 3.5 | 0.00 | 0.06 | 0.06 | 41 | 1007.3 |
| 20260506001530 | 75 | 0 | 0.0 | 3.5 | 0.00 | 0.06 | 0.06 | 41 | 1007.3 |
| 20260506001015 | 75 | 0 | 0.0 | 7.8 | 0.00 | 0.06 | 0.06 | 40 | 1007.3 |
| 20260506000514 | 75 | 0 | 1.7 | 7.8 | 0.00 | 0.06 | 0.06 | 40 | 1007.2 |
| 20260506000028 | 75 | 0 | 1.7 | 7.8 | 0.00 | 0.06 | 0.06 | 40 | 1007.3 |
| 20260505235513 | 75 | 209 | 0.9 | 7.8 | 0.00 | 0.06 | 0.06 | 41 | 1007.1 |
| 20260505235017 | 75 | 186 | 0.9 | 7.8 | 0.00 | 0.06 | 0.06 | 40 | 1007.1 |
| 20260505234530 | 76 | 0 | 0.9 | 7.8 | 0.00 | 0.06 | 0.06 | 40 | 1007.0 |
| 20260505234014 | 76 | 198 | 0.9 | 10.4 | 0.00 | 0.06 | 0.06 | 40 | 1007.0 |
| 20260505233513 | 76 | 212 | 1.7 | 10.4 | 0.00 | 0.06 | 0.06 | 39 | 1006.9 |
| 20260505233029 | 76 | 0 | 0.9 | 8.7 | 0.00 | 0.06 | 0.06 | 39 | 1006.9 |
| 20260505232510 | 76 | 0 | 2.6 | 8.7 | 0.00 | 0.06 | 0.06 | 39 | 1006.9 |
| 20260505232011 | 76 | 192 | 1.7 | 6.1 | 0.00 | 0.06 | 0.06 | 39 | 1006.9 |
| 20260505231531 | 76 | 180 | 0.9 | 6.1 | 0.00 | 0.06 | 0.06 | 39 | 1006.8 |
| 20260505231011 | 76 | 196 | 0.0 | 4.3 | 0.00 | 0.06 | 0.06 | 39 | 1006.7 |
| 20260505230514 | 76 | 207 | 0.0 | 7.0 | 0.00 | 0.06 | 0.06 | 40 | 1006.7 |
| 20260505230028 | 77 | 206 | 0.9 | 7.8 | 0.00 | 0.06 | 0.06 | 39 | 1006.7 |
| 20260505225514 | 77 | 254 | 1.7 | 9.6 | 0.00 | 0.06 | 0.06 | 39 | 1006.7 |
| 20260505225014 | 77 | 234 | 1.7 | 13.0 | 0.00 | 0.06 | 0.06 | 39 | 1006.6 |
| 20260505224530 | 77 | 236 | 3.5 | 13.0 | 0.00 | 0.06 | 0.06 | 39 | 1006.5 |
| 20260505224011 | 78 | 0 | 1.7 | 8.7 | 0.00 | 0.06 | 0.06 | 40 | 1006.5 |
| 20260505223512 | 78 | 298 | 0.9 | 8.7 | 0.00 | 0.06 | 0.06 | 41 | 1006.4 |
| 20260505223036 | 78 | 0 | 0.9 | 8.7 | 0.00 | 0.06 | 0.06 | 40 | 1006.4 |
| 20260505222517 | 78 | 277 | 1.7 | 8.7 | 0.00 | 0.06 | 0.06 | 40 | 1006.1 |
| 20260505222015 | 78 | 236 | 2.6 | 8.7 | 0.00 | 0.06 | 0.06 | 38 | 1006.2 |
| 20260505221534 | 78 | 136 | 1.7 | 13.0 | 0.00 | 0.06 | 0.06 | 38 | 1006.2 |
| 20260505221015 | 78 | 190 | 3.5 | 13.0 | 0.00 | 0.06 | 0.06 | 37 | 1006.1 |
| 20260505220512 | 78 | 162 | 1.7 | 11.3 | 0.00 | 0.06 | 0.06 | 38 | 1006.1 |
| 20260505220047 | 79 | 5 | 2.6 | 11.3 | 0.00 | 0.06 | 0.06 | 37 | 1005.9 |
| 20260505215512 | 80 | 352 | 0.9 | 7.0 | 0.00 | 0.06 | 0.06 | 37 | 1005.9 |
| 20260505215011 | 80 | 94 | 1.7 | 9.6 | 0.00 | 0.06 | 0.06 | 38 | 1005.9 |
| 20260505214534 | 80 | 342 | 2.6 | 9.6 | 0.00 | 0.06 | 0.06 | 36 | 1005.8 |
| 20260505214013 | 80 | 255 | 1.7 | 9.6 | 0.00 | 0.06 | 0.06 | 37 | 1005.9 |
| 20260505213514 | 79 | 81 | 4.3 | 10.4 | 0.00 | 0.06 | 0.06 | 37 | 1005.8 |
| 20260505213033 | 79 | 221 | 2.6 | 10.4 | 0.00 | 0.06 | 0.06 | 36 | 1005.8 |
| 20260505212513 | 80 | 189 | 1.7 | 6.1 | 0.00 | 0.06 | 0.06 | 39 | 1005.8 |
| 20260505212015 | 80 | 190 | 0.9 | 8.7 | 0.00 | 0.06 | 0.06 | 39 | 1005.7 |
| 20260505211528 | 80 | 300 | 1.7 | 11.3 | 0.00 | 0.06 | 0.06 | 38 | 1005.8 |
| 20260505211014 | 80 | 267 | 2.6 | 11.3 | 0.00 | 0.06 | 0.06 | 38 | 1005.7 |
| 20260505210510 | 81 | 167 | 3.5 | 10.4 | 0.00 | 0.06 | 0.06 | 34 | 1005.7 |
| 20260505210030 | 82 | 0 | 3.5 | 10.4 | 0.00 | 0.06 | 0.06 | 33 | 1005.4 |
| 20260505205513 | 82 | 209 | 4.3 | 10.4 | 0.00 | 0.06 | 0.06 | 34 | 1005.5 |
| 20260505205011 | 82 | 195 | 1.7 | 9.6 | 0.00 | 0.06 | 0.06 | 39 | 1005.4 |
| 20260505204532 | 82 | 291 | 2.6 | 9.6 | 0.00 | 0.06 | 0.06 | 38 | 1005.2 |
| 20260505204010 | 82 | 293 | 4.3 | 9.6 | 0.00 | 0.06 | 0.06 | 37 | 1005.3 |
| 20260505203511 | 82 | 261 | 2.6 | 13.0 | 0.00 | 0.06 | 0.06 | 36 | 1005.2 |
| 20260505203031 | 82 | 263 | 1.7 | 13.0 | 0.00 | 0.06 | 0.06 | 37 | 1005.3 |
| 20260505202513 | 82 | 202 | 2.6 | 12.2 | 0.00 | 0.06 | 0.06 | 36 | 1005.5 |
| 20260505202012 | 82 | 292 | 2.6 | 12.2 | 0.00 | 0.06 | 0.06 | 39 | 1005.6 |
| 20260505201530 | 82 | 348 | 1.7 | 13.0 | 0.00 | 0.06 | 0.06 | 38 | 1005.7 |
| 20260505201027 | 82 | 338 | 6.1 | 13.0 | 0.00 | 0.06 | 0.06 | 36 | 1005.9 |
| 20260505200515 | 82 | 271 | 2.6 | 9.6 | 0.00 | 0.06 | 0.06 | 38 | 1005.7 |
| 20260505200035 | 82 | 236 | 2.6 | 7.8 | 0.00 | 0.06 | 0.06 | 39 | 1006.0 |
| 20260505195511 | 83 | 229 | 0.9 | 12.2 | 0.00 | 0.06 | 0.06 | 41 | 1005.9 |
| 20260505195015 | 83 | 340 | 0.9 | 12.2 | 0.00 | 0.06 | 0.06 | 42 | 1005.7 |
| 20260505194528 | 83 | 309 | 0.9 | 8.7 | 0.00 | 0.06 | 0.06 | 41 | 1005.8 |
| 20260505194012 | 82 | 155 | 2.6 | 8.7 | 0.00 | 0.06 | 0.06 | 39 | 1005.8 |
| 20260505193510 | 83 | 236 | 2.6 | 10.4 | 0.00 | 0.06 | 0.06 | 40 | 1005.9 |
| 20260505193031 | 83 | 244 | 4.3 | 10.4 | 0.00 | 0.06 | 0.06 | 38 | 1006.0 |
| 20260505192510 | 82 | 191 | 1.7 | 13.9 | 0.00 | 0.06 | 0.06 | 41 | 1006.1 |
| 20260505192014 | 82 | 244 | 2.6 | 13.9 | 0.00 | 0.06 | 0.06 | 38 | 1006.1 |
| 20260505191535 | 82 | 154 | 3.5 | 11.3 | 0.00 | 0.06 | 0.06 | 39 | 1006.3 |
| 20260505191014 | 82 | 182 | 2.6 | 10.4 | 0.00 | 0.06 | 0.06 | 39 | 1006.2 |
| 20260505190518 | 82 | 155 | 1.7 | 13.9 | 0.00 | 0.06 | 0.06 | 40 | 1006.3 |
| 20260505190032 | 81 | 352 | 2.6 | 13.9 | 0.00 | 0.06 | 0.06 | 39 | 1006.6 |
| 20260505185515 | 81 | 180 | 4.3 | 10.4 | 0.00 | 0.06 | 0.06 | 42 | 1006.6 |
| 20260505185011 | 81 | 237 | 3.5 | 9.6 | 0.00 | 0.06 | 0.06 | 42 | 1006.5 |
| 20260505184532 | 82 | 302 | 3.5 | 9.6 | 0.00 | 0.06 | 0.06 | 41 | 1006.7 |
| 20260505184013 | 82 | 201 | 1.7 | 11.3 | 0.00 | 0.06 | 0.06 | 45 | 1006.6 |
| 20260505183511 | 81 | 301 | 1.7 | 11.3 | 0.00 | 0.06 | 0.06 | 43 | 1006.9 |
| 20260505183036 | 81 | 188 | 2.6 | 12.2 | 0.00 | 0.06 | 0.06 | 44 | 1006.9 |
| 20260505182511 | 81 | 161 | 2.6 | 12.2 | 0.00 | 0.06 | 0.06 | 43 | 1007.2 |
| 20260505182012 | 80 | 261 | 3.5 | 10.4 | 0.00 | 0.06 | 0.06 | 45 | 1007.2 |
| 20260505181529 | 80 | 312 | 3.5 | 13.0 | 0.00 | 0.06 | 0.06 | 46 | 1007.1 |
| 20260505181013 | 80 | 243 | 5.2 | 13.0 | 0.00 | 0.06 | 0.06 | 47 | 1007.3 |
| 20260505180510 | 80 | 227 | 2.6 | 11.3 | 0.00 | 0.06 | 0.06 | 46 | 1007.3 |
| 20260505180028 | 80 | 317 | 7.0 | 13.9 | 0.00 | 0.06 | 0.06 | 46 | 1007.4 |
| 20260505175513 | 80 | 311 | 3.5 | 13.9 | 0.00 | 0.06 | 0.06 | 46 | 1007.2 |
| 20260505175011 | 80 | 330 | 5.2 | 12.2 | 0.00 | 0.06 | 0.06 | 44 | 1007.2 |
| 20260505174530 | 80 | 321 | 4.3 | 11.3 | 0.00 | 0.06 | 0.06 | 45 | 1007.1 |
| 20260505174012 | 80 | 298 | 5.2 | 10.4 | 0.00 | 0.06 | 0.06 | 45 | 1007.3 |
| 20260505173517 | 79 | 348 | 2.6 | 10.4 | 0.00 | 0.06 | 0.06 | 47 | 1007.4 |
| 20260505173028 | 79 | 243 | 3.5 | 10.4 | 0.00 | 0.06 | 0.06 | 46 | 1007.4 |
| 20260505172513 | 79 | 346 | 3.5 | 10.4 | 0.00 | 0.06 | 0.06 | 48 | 1007.6 |
| 20260505172015 | 79 | 290 | 3.5 | 10.4 | 0.00 | 0.06 | 0.06 | 47 | 1007.7 |
| 20260505171531 | 79 | 211 | 1.7 | 10.4 | 0.00 | 0.06 | 0.06 | 48 | 1007.6 |
| 20260505171016 | 79 | 184 | 1.7 | 8.7 | 0.00 | 0.06 | 0.06 | 50 | 1007.6 |
| 20260505170513 | 79 | 0 | 3.5 | 12.2 | 0.00 | 0.06 | 0.06 | 48 | 1007.6 |
| 20260505170033 | 79 | 207 | 0.9 | 12.2 | 0.00 | 0.06 | 0.06 | 51 | 1007.6 |
| 20260505165510 | 79 | 121 | 2.6 | 9.6 | 0.00 | 0.06 | 0.06 | 50 | 1007.8 |
| 20260505165010 | 79 | 268 | 1.7 | 7.8 | 0.00 | 0.06 | 0.06 | 48 | 1007.8 |
| 20260505164531 | 79 | 224 | 2.6 | 9.6 | 0.00 | 0.06 | 0.06 | 49 | 1008.0 |
| 20260505164012 | 78 | 244 | 2.6 | 9.6 | 0.00 | 0.06 | 0.06 | 49 | 1008.1 |
| 20260505163515 | 78 | 0 | 0.9 | 7.8 | 0.00 | 0.06 | 0.06 | 52 | 1008.2 |
| 20260505163030 | 78 | 247 | 0.9 | 7.8 | 0.00 | 0.06 | 0.06 | 53 | 1008.3 |
| 20260505162521 | 78 | 240 | 1.7 | 7.8 | 0.00 | 0.06 | 0.06 | 48 | 1008.5 |
| 20260505162012 | 77 | 229 | 0.9 | 9.6 | 0.00 | 0.06 | 0.06 | 53 | 1008.5 |
| 20260505161539 | 77 | 190 | 1.7 | 9.6 | 0.00 | 0.06 | 0.06 | 51 | 1008.5 |
| 20260505161014 | 77 | 304 | 2.6 | 9.6 | 0.00 | 0.06 | 0.06 | 51 | 1008.6 |
| 20260505160518 | 76 | 299 | 4.3 | 9.6 | 0.00 | 0.06 | 0.06 | 49 | 1008.7 |
| 20260505153029 | 75 | 72 | 1.7 | 8.7 | 0.00 | 0.06 | 0.06 | 55 | 1009.1 |
| 20260505152510 | 75 | 0 | 3.5 | 9.6 | 0.00 | 0.06 | 0.06 | 53 | 1009.2 |
| 20260505152012 | 75 | 338 | 3.5 | 9.6 | 0.00 | 0.06 | 0.06 | 55 | 1009.1 |
| 20260505151531 | 74 | 217 | 0.9 | 8.7 | 0.00 | 0.06 | 0.06 | 56 | 1009.3 |
| 20260505151013 | 74 | 217 | 3.5 | 8.7 | 0.00 | 0.06 | 0.06 | 56 | 1009.4 |
| 20260505150513 | 74 | 285 | 2.6 | 8.7 | 0.00 | 0.06 | 0.06 | 57 | 1009.3 |
| 20260505140512 | 72 | 88 | 2.6 | 12.2 | 0.00 | 0.06 | 0.06 | 63 | 1009.5 |
| 20260505125013 | 60 | 331 | 0.0 | 5.2 | 0.00 | 0.06 | 0.06 | 87 | 1009.2 |
| 20260505124530 | 60 | 335 | 0.9 | 5.2 | 0.00 | 0.06 | 0.06 | 88 | 1009.2 |
| 20260505124014 | 59 | 303 | 0.9 | 2.6 | 0.00 | 0.06 | 0.06 | 89 | 1009.0 |
| 20260505123514 | 58 | 0 | 0.0 | 1.7 | 0.00 | 0.06 | 0.06 | 89 | 1008.9 |
| 20260505123033 | 57 | 273 | 0.0 | 2.6 | 0.00 | 0.06 | 0.06 | 89 | 1008.9 |
| 20260505122511 | 57 | 0 | 0.0 | 2.6 | 0.00 | 0.06 | 0.06 | 91 | 1008.9 |
| 20260505122014 | 56 | 0 | 0.0 | 0.9 | 0.00 | 0.06 | 0.06 | 92 | 1008.9 |
| 20260505121534 | 56 | 0 | 0.0 | 0.9 | 0.00 | 0.06 | 0.06 | 92 | 1008.9 |
| 20260505121011 | 55 | 0 | 0.0 | 0.9 | 0.00 | 0.06 | 0.06 | 92 | 1008.9 |
| 20260505120517 | 55 | 0 | 0.0 | 0.9 | 0.00 | 0.06 | 0.06 | 92 | 1009.0 |
| 20260505120030 | 55 | 0 | 0.0 | 0.9 | 0.01 | 0.06 | 0.06 | 94 | 1009.0 |
| 20260505115513 | 55 | 0 | 0.0 | 0.0 | 0.01 | 0.06 | 0.06 | 94 | 1009.0 |
| 20260505115011 | 55 | 0 | 0.0 | 0.0 | 0.01 | 0.06 | 0.06 | 93 | 1008.9 |
| 20260505114533 | 55 | 0 | 0.0 | 0.0 | 0.01 | 0.06 | 0.06 | 93 | 1009.1 |
| 20260505114014 | 55 | 0 | 0.0 | 0.0 | 0.01 | 0.06 | 0.06 | 93 | 1009.2 |
| 20260505113511 | 55 | 0 | 0.0 | 0.0 | 0.02 | 0.06 | 0.06 | 93 | 1009.1 |
| 20260505113029 | 55 | 0 | 0.0 | 0.0 | 0.02 | 0.06 | 0.06 | 92 | 1009.3 |
| 20260505112513 | 55 | 0 | 0.0 | 0.0 | 0.05 | 0.06 | 0.06 | 92 | 1009.3 |
| 20260505112014 | 54 | 0 | 0.0 | 0.0 | 0.06 | 0.06 | 0.06 | 92 | 1009.2 |
| 20260505111529 | 54 | 0 | 0.0 | 0.0 | 0.06 | 0.06 | 0.06 | 92 | 1009.0 |
| 20260505111013 | 54 | 0 | 0.0 | 1.7 | 0.06 | 0.06 | 0.06 | 91 | 1009.0 |
| 20260505110514 | 54 | 0 | 0.0 | 1.7 | 0.06 | 0.06 | 0.06 | 91 | 1009.1 |
| 20260505102017 | 57 | 200 | 0.0 | 5.2 | 0.00 | 0.00 | 0.00 | 71 | 1009.4 |
| 20260505101534 | 57 | 0 | 0.9 | 5.2 | 0.00 | 0.00 | 0.00 | 71 | 1009.3 |
| 20260505101011 | 57 | 0 | 0.0 | 2.6 | 0.00 | 0.00 | 0.00 | 71 | 1009.4 |
| 20260505100513 | 57 | 0 | 0.0 | 2.6 | 0.00 | 0.00 | 0.00 | 71 | 1009.2 |
| 20260505100033 | 57 | 257 | 0.0 | 0.9 | 0.00 | 0.00 | 0.00 | 71 | 1009.0 |
| 20260505095513 | 57 | 0 | 0.0 | 3.5 | 0.00 | 0.00 | 0.00 | 71 | 1009.3 |
| 20260505095014 | 57 | 0 | 0.0 | 3.5 | 0.00 | 0.00 | 0.00 | 71 | 1009.0 |
| 20260505094529 | 56 | 0 | 0.0 | 2.6 | 0.00 | 0.00 | 0.00 | 72 | 1008.8 |
| 20260505094010 | 56 | 0 | 0.0 | 2.6 | 0.00 | 0.00 | 0.00 | 72 | 1008.7 |
| 20260505093514 | 55 | 0 | 0.0 | 2.6 | 0.00 | 0.00 | 0.00 | 73 | 1008.8 |
| 20260505093028 | 55 | 0 | 0.0 | 4.3 | 0.00 | 0.00 | 0.00 | 73 | 1008.5 |
| 20260505092514 | 55 | 0 | 0.0 | 4.3 | 0.00 | 0.00 | 0.00 | 74 | 1008.6 |